world map with PNA marked

PNA - Airport

This information may not be accurate or current and is not valid for navigation or flight planning. No warranty of fitness for any purpose is made or implied.

flag of Navarraflag of Spain

Donate via PayPal

Additional information is available on the NEW Great Circle Mapper

Location
City:  Pamplona, Navarra, Spain
ICAO / IATA:LEPP / PNA

Details
Type:Airport (Aerodrome, Airfield)
Use:Public/Civil
Latitude:42°46'12"N (42.770039)
Longitude:1°38'47"W (-1.646330)
Datum:WGS 1984
Elevation:1504 ft (458 m)
Runways:1
Longest:7241 × 148 ft (2207 × 45 m)

Time
Timezone:UTC+1 (DST+2)
Local Time:

Weather
METAR:LEPP  190930Z 17011KT 130V210 9999 SCT035 22/11 Q1013
TAF:LEPP  190800Z 1909/2009 16009KT CAVOK TX28/1913Z TN15/2006Z TEMPO 1913/1918 SCT030TCU

Related Locations
Nearby:
Farthest:NZFT: 12274 mi / 19753 km
Flat Point, NZ

Find:

   beyond  
but within

Other Information
Maps:
Links:
Sources:

  


 


Great Circle Mapper   Great Circle Mapper
Great Circle Mapper FAQ   Great Circle Mapper FAQ
  Karl's Home Page
KLSē   KLSē Home
   GC on Facebook
Airlines of the World   Airlines of the World
Donate via PayPal


Copyright © 2004-2014, Karl L. Swartz. All rights reserved.
All trademarks mentioned herein belong to their respective owners.

Please see credits for attribution and copyright information.

Karl Swartz <karl@kls2.com>
  Powered by FreeBSD
Valid HTML 4.01!
Labeled with ICRA
hCard Microformat
Geo Microformat